WEATHER DATA

YESTERDAY
Time Temp. Dewp. Hum. Wind dir Wind speed Wind gust Bar. 1h Prec. 24h Prec.
00:09 20.1 2.5 31 270 0.3 0.8 1020.7 0.0000 0.0000
00:20 20 2.4 31 270 0.3 0.8 1020.6 0.0000 0.0000
00:30 19.9 2.3 31 254 0.6 1.1 1020.7 0.0000 0.0000
00:40 19.8 2.6 32 236 0.3 0.8 1020.7 0.0000 0.0000
00:50 19.6 3.3 34 161 0.3 0.8 1020.6 0.0000 0.0000
01:00 19.5 3.2 34 225 0.3 0.8 1020.5 0.0000 0.0000
01:10 19.4 3.2 34 135 0.3 0.8 1020.5 0.0000 0.0000
01:20 19.3 3.1 34 206 0.3 0.8 1020.3 0.0000 0.0000
01:31 19.2 2.6 33 210 0.3 0.6 1020.3 0.0000 0.0000
01:41 19.1 2.5 33 180 0.3 0.6 1020.2 0.0000 0.0000
01:51 19.1 2 32 270 0.3 1.1 1020.1 0.0000 0.0000
02:00 19 2.4 33 270 0.3 0.6 1020.1 0.0000 0.0000
02:11 19 1.9 32 225 0.3 0.6 1020 0.0000 0.0000
02:21 18.8 2.2 33 237 0.3 1.1 1019.9 0.0000 0.0000
02:31 18.8 2.2 33 270 0.3 0.8 1019.8 0.0000 0.0000
02:42 18.7 2.1 33 250 0.6 1.1 1019.7 0.0000 0.0000
02:52 18.6 2 33 270 0.3 1.1 1019.5 0.0000 0.0000
03:01 18.5 1.9 33 270 0.3 1.1 1019.5 0.0000 0.0000
03:11 18.4 1.9 33 239 0.3 0.8 1019.4 0.0000 0.0000
03:22 18.3 2.2 34 270 0.3 0.8 1019.5 0.0000 0.0000
03:32 18.1 2 34 225 0.6 1.7 1019.3 0.0000 0.0000
03:42 18 1.5 33 229 0.6 1.4 1019.3 0.0000 0.0000
03:52 17.9 1.4 33 229 0.6 1.4 1019.3 0.0000 0.0000
04:03 17.8 1.3 33 225 0.6 1.1 1019.2 0.0000 0.0000
04:12 17.8 1.3 33 231 0.6 1.1 1019.1 0.0000 0.0000
04:22 17.7 1.2 33 228 0.6 1.4 1019 0.0000 0.0000
04:33 17.7 2.1 35 225 0.6 0.8 1018.9 0.0000 0.0000
04:43 17.7 1.2 33 227 0.6 1.1 1018.8 0.0000 0.0000
04:53 17.6 1.2 33 225 0.6 1.4 1018.7 0.0000 0.0000
05:03 17.5 1.1 33 229 0.6 1.7 1018.4 0.0000 0.0000
05:14 17.4 1 33 225 0.6 1.4 1018.2 0.0000 0.0000
05:23 17.3 0.9 33 230 0.8 1.7 1018.1 0.0000 0.0000
05:33 17.3 1.3 34 235 0.6 1.4 1018 0.0000 0.0000
05:44 17.2 1.2 34 235 0.6 1.4 1017.9 0.0000 0.0000
05:54 17.1 0.7 33 231 0.6 1.4 1017.8 0.0000 0.0000
06:04 17 0.6 33 233 0.6 1.4 1017.8 0.0000 0.0000
06:14 16.9 1 34 232 0.6 1.1 1017.9 0.0000 0.0000
06:24 16.8 0.9 34 225 0.6 1.1 1017.9 0.0000 0.0000
06:34 16.7 0.8 34 225 0.6 1.1 1017.9 0.0000 0.0000
06:44 16.7 1.2 35 225 0.3 0.8 1017.8 0.0000 0.0000
06:54 16.6 1.1 35 225 0.6 0.8 1017.8 0.0000 0.0000
07:05 16.6 1.1 35 225 0.6 0.8 1017.8 0.0000 0.0000
07:15 16.6 1.1 35 228 0.3 0.8 1017.8 0.0000 0.0000
07:25 16.6 1.5 36 232 0.3 0.6 1017.7 0.0000 0.0000
07:35 16.8 1.7 36 203 0.3 0.8 1017.7 0.0000 0.0000
07:45 16.8 1.3 35 135 0.3 1.1 1017.7 0.0000 0.0000
07:55 16.8 1.3 35 151 0.3 0.6 1017.8 0.0000 0.0000
08:05 17 2.2 37 135 0.3 0.8 1017.8 0.0000 0.0000
08:16 17.1 1.9 36 151 0.3 0.8 1017.8 0.0000 0.0000
08:25 17.2 2 36 140 0.3 0.6 1017.7 0.0000 0.0000
08:35 17.4 2.2 36 184 0.3 0.6 1017.6 0.0000 0.0000
08:46 17.5 2.7 37 140 0.3 0.8 1017.6 0.0000 0.0000
08:56 17.6 2.8 37 145 0.3 0.8 1017.6 0.0000 0.0000
09:06 17.8 2.5 36 146 0.3 0.8 1017.6 0.0000 0.0000
09:16 17.9 2.6 36 157 0.3 0.8 1017.6 0.0000 0.0000
09:27 18.1 2.8 36 139 0.3 0.8 1017.7 0.0000 0.0000
09:36 18.3 2.6 35 191 0.3 0.8 1017.7 0.0000 0.0000
09:46 18.6 2.9 35 161 0.3 0.8 1017.7 0.0000 0.0000
09:56 18.9 3.1 35 210 0.3 0.8 1017.6 0.0000 0.0000
10:07 19.2 3.4 35 161 0.3 0.8 1017.6 0.0000 0.0000
10:17 19.4 3.2 34 150 0.3 1.1 1017.5 0.0000 0.0000
10:27 19.6 2.9 33 146 0.6 1.1 1017.5 0.0000 0.0000
10:37 19.9 2.7 32 210 0.3 0.8 1017.5 0.0000 0.0000
10:47 20.2 3 32 225 0.3 0.8 1017.4 0.0000 0.0000
10:57 20.5 3.3 32 230 0.3 1.1 1017.4 0.0000 0.0000
11:07 20.8 3.5 32 185 0.3 0.8 1017.4 0.0000 0.0000
11:18 21.1 3.8 32 225 0.6 1.1 1017.4 0.0000 0.0000
11:28 21.3 4 32 175 0.3 1.4 1017.2 0.0000 0.0000
11:37 21.6 3.8 31 186 0.3 1.4 1017.2 0.0000 0.0000
11:48 21.8 3 29 225 0.3 1.1 1017.2 0.0000 0.0000
11:58 22.1 3.7 30 225 0.3 1.1 1017 0.0000 0.0000
12:08 22.2 3.8 30 220 0.3 1.1 1016.8 0.0000 0.0000
12:18 22.4 3.5 29 171 0.3 1.1 1016.8 0.0000 0.0000
12:29 22.5 3.1 28 135 0.3 1.1 1016.4 0.0000 0.0000
12:39 22.7 3.3 28 203 0.3 1.1 1016.3 0.0000 0.0000
12:48 22.9 2.9 27 90 0.3 0.8 1016.3 0.0000 0.0000
12:58 23 3.5 28 198 0.3 1.1 1016.2 0.0000 0.0000
13:09 23.2 3.7 28 135 0.3 0.8 1016.1 0.0000 0.0000
13:19 23.3 2.7 26 90 0.3 0.8 1016 0.0000 0.0000
13:32 23.5 2.9 26 90 0.3 0.8 1015.9 0.0000 0.0000
13:41 23.5 2.9 26 217 0.3 1.1 1015.8 0.0000 0.0000
13:51 23.6 2.4 25 135 0.3 0.8 1015.7 0.0000 0.0000
14:02 23.7 2.5 25 188 0.3 1.1 1015.5 0.0000 0.0000
14:12 23.9 2.7 25 237 0.6 1.4 1015.5 0.0000 0.0000
14:22 24.2 3 25 246 0.6 1.4 1015.4 0.0000 0.0000
14:32 24.4 3.1 25 270 0.3 1.1 1015.3 0.0000 0.0000
14:42 24.7 3.4 25 255 0.6 2.5 1015.3 0.0000 0.0000
14:52 24.8 2.9 24 255 0.6 1.4 1015.2 0.0000 0.0000
15:02 25 3 24 248 0.6 1.4 1014.9 0.0000 0.0000
15:07 25.1 3.1 24 249 0.6 1.4 1014.9 0.0000 0.0000
15:17 25.1 3.1 24 270 0.3 1.1 1014.7 0.0000 0.0000
15:27 25.2 3.2 24 255 0.6 1.9 1014.6 0.0000 0.0000
15:37 25.2 3.2 24 251 0.6 1.4 1014.4 0.0000 0.0000
15:48 25.3 3.9 25 225 0.3 1.1 1014.1 0.0000 0.0000
15:58 25.3 3.9 25 270 0.3 1.4 1014 0.0000 0.0000
16:08 25.3 3.3 24 247 0.6 1.7 1013.9 0.0000 0.0000
16:18 25.2 3.2 24 270 0.3 1.9 1013.9 0.0000 0.0000
16:28 25.2 3.2 24 270 0.3 2.2 1013.8 0.0000 0.0000
16:38 25.1 3.1 24 251 0.6 1.4 1013.7 0.0000 0.0000
16:48 25 3.6 25 239 0.3 1.1 1013.6 0.0000 0.0000
16:59 24.9 3.5 25 225 0.3 1.4 1013.5 0.0000 0.0000
17:09 24.7 3.4 25 243 0.6 1.7 1013.4 0.0000 0.0000
17:18 24.5 3.2 25 270 0.3 1.4 1013.3 0.0000 0.0000
17:28 24.4 3.1 25 270 0.3 1.1 1013.3 0.0000 0.0000
17:39 24.2 3 25 270 0.3 0.8 1013.2 0.0000 0.0000
17:49 24 2.8 25 246 0.6 1.9 1013.2 0.0000 0.0000
17:59 23.9 3.2 26 246 0.6 1.9 1013 0.0000 0.0000
18:09 23.7 3.1 26 240 0.3 1.1 1012.8 0.0000 0.0000
18:19 23.6 3 26 225 0.3 1.1 1012.8 0.0000 0.0000
18:29 23.5 3.4 27 240 0.3 1.1 1012.6 0.0000 0.0000
18:39 23.4 3.4 27 228 0.6 1.1 1012.5 0.0000 0.0000
18:50 23.3 3.3 27 225 0.3 1.1 1012.5 0.0000 0.0000
19:00 23.2 3.2 27 225 0.3 1.4 1012.4 0.0000 0.0000
19:10 23 3.5 28 219 0.3 1.1 1012.4 0.0000 0.0000
19:20 22.9 2.9 27 232 0.3 1.1 1012.3 0.0000 0.0000
19:30 22.8 3.4 28 270 0.3 1.1 1012.2 0.0000 0.0000
19:40 22.7 3.8 29 206 0.3 0.8 1012.2 0.0000 0.0000
19:50 22.7 3.3 28 270 0.3 0.8 1012.2 0.0000 0.0000
20:01 22.5 3.1 28 240 0.3 0.8 1012.2 0.0000 0.0000
20:11 22.5 3.1 28 270 0.3 0.8 1012.2 0.0000 0.0000
20:21 22.3 2.9 28 228 0.3 1.1 1012.2 0.0000 0.0000
20:30 22.2 2.8 28 270 0.6 1.1 1012.1 0.0000 0.0000
20:41 22.1 2.8 28 270 0.6 1.1 1012.2 0.0000 0.0000
20:51 22 3.2 29 270 0.6 1.1 1012.2 0.0000 0.0000
21:01 21.8 3 29 270 0.6 1.1 1012.2 0.0000 0.0000
21:11 21.7 2.9 29 270 0.6 1.1 1012.2 0.0000 0.0000
21:22 21.6 2.8 29 270 0.3 0.8 1012.2 0.0000 0.0000
21:31 21.5 2.7 29 270 0.6 1.1 1012.2 0.0000 0.0000
21:41 21.4 2.7 29 270 0.3 0.8 1012.2 0.0000 0.0000
21:52 21.3 2.6 29 270 0.3 0.8 1012.1 0.0000 0.0000
22:02 21.2 2.5 29 270 0.6 1.4 1012.1 0.0000 0.0000
22:12 21.1 2.4 29 270 0.6 1.4 1012.1 0.0000 0.0000
22:22 21 2.3 29 270 0.6 1.1 1012 0.0000 0.0000
22:32 20.9 2.2 29 270 0.3 1.1 1011.9 0.0000 0.0000
22:42 20.8 2.6 30 255 0.6 1.4 1011.9 0.0000 0.0000
22:52 20.6 2.4 30 270 0.6 0.8 1011.8 0.0000 0.0000
23:03 20.5 2.3 30 270 0.6 1.1 1011.8 0.0000 0.0000
23:13 20.4 2.3 30 270 0.6 1.4 1011.7 0.0000 0.0000
23:23 20.3 2.2 30 270 0.3 1.1 1011.6 0.0000 0.0000
23:32 20.1 2.5 31 248 0.6 1.7 1011.5 0.0000 0.0000
23:43 20 2.4 31 255 0.6 1.1 1011.5 0.0000 0.0000
23:53 19.9 2.3 31 270 0.3 1.1 1011.5 0.0000 0.0000

DAY STATISTIC

2019-04-21
TEMPERATURE
AVERAGE
20.7
HIGH
25.3
15:48
LOW
16.6
06:54
PRESSURE
AVERAGE
1016.0
HIGH
1020.7
00:09
LOW
1011.5
23:32
DEWPOINT
AVERAGE
2.6
HIGH
4.0
11:28
LOW
0.6
06:04
HUMIDITY
AVERAGE
30
HIGH
37
08:05
LOW
24
14:52
WIND SPEED
AVERAGE
0.4
HIGH
0.8
05:23
WIND GUST
AVERAGE
1.1
HIGH
2.5
14:42
WIND DIRECTION
PREVAILING
SW
42.3%
N
0.0
NE
0.0
E
2.1
SE
11.3
S
9.9
SW
42.3
W
34.5
NW
0.0
PRECIPITATION
RAIN HOUR
0.0
RAIN DAY
0.0
TEMPERATURE (°C)
LOW
16.6
HIGH
25.3
AVERAGE
20.7
PRESSURE (hpa)
LOW
1011.5
HIGH
1020.7
AVERAGE
1016.0
DEVICE